{"data":{"norad_id":61941,"epoch":"2026-05-24T23:20:49.107840Z","epoch_age_seconds":84379,"freshness":"FRESH","line1":"1 61941U 24209C   26144.97279060  .00117058  00000+0  95595-3 0  9992","line2":"2 61941  53.1576 354.8770 0000970  84.9050 275.2078 15.69748713 88666","mean_motion":15.69748713,"eccentricity":9.7e-5,"inclination_deg":53.1576,"raan_deg":354.877,"arg_perigee_deg":84.905,"mean_anomaly_deg":275.2078,"bstar":0.00095595,"rev_number":8866,"period_min":91.734427814753,"perigee_km":358.9624088709,"apogee_km":360.26953294726,"semimajor_km":6737.7529709091,"source":"CELESTRAK","updated_at":"2026-05-25T13:38:19.486134Z"}}